SCP
0 0 0 0 0 0 0 0 0 0 0 1 1 1 1 1 1 1 1 1 1 1 1 0 0 0 0 0 0 0 0 0 0 0 0 0 0 0 0 0 0 0 0 0
0 0 0 0 0 0 0 0 0 0 0 1 1 1 1 1 1 1 1 1 1 1 0 0 0 0 0 0 0 0 0 0 0 0 0 0 0 0 0 0 0 0 0 0
0 0 0 0 0 0 0 0 0 0 0 1 1 1 1 1 1 1 1 1 1 1 0 0 0 0 0 0 0 0 0 0 0 0 0 0 0 0 0 0 0 0 0 0
0 0 0 0 0 0 0 0 0 0 1 1 1 1 1 1 1 1 1 1 1 0 0 0 0 0 0 0 0 0 0 0 0 0 0 0 0 0 0 0 0 0 0 0
0 0 0 0 0 0 0 0 1 1 1 1 1 1 1 1 1 1 1 1 0 0 0 0 0 0 0 0 0 0 0 0 0 0 0 0 0 0 0 0 0 0 0 0
0 0 0 0 0 0 0 1 1 1 1 1 1 1 1 1 1 1 1 0 0 0 0 0 0 0 0 0 0 0 0 0 0 0 0 0 0 0 0 0 0 0 0 0
0 0 0 0 0 0 0 1 1 1 1 1 1 1 1 1 1 1 0 0 0 0 0 0 0 0 0 0 0 0 0 0 0 0 0 0 0 0 0 0 0 0 0 0
0 0 0 0 0 0 0 1 1 1 1 1 1 1 1 1 1 0 0 0 0 0 0 0 0 0 0 0 0 0 0 0 0 0 0 0 0 0 0 0 0 0 0 0
0 0 0 0 0 0 0 1 1 1 1 1 1 1 1 1 0 0 0 0 0 0 0 0 0 0 0 0 0 0 0 0 0 0 0 0 0 0 0 0 0 0 0 0
0 0 0 0 0 0 0 1 1 1 1 1 1 1 0 0 0 0 0 0 0 0 0 0 0 0 0 0 0 0 0 0 0 0 0 0 0 0 0 0 0 0 0 0
0 0 0 0 0 1 1 1 1 1 1 1 0 0 0 0 0 0 0 0 0 0 0 0 0 0 0 0 0 0 0 0 0 0 0 0 0 0 0 0 0 0 0 0
0 0 0 0 0 1 1 1 1 1 1 1 0 0 0 0 0 0 0 0 0 0 0 0 0 0 0 0 0 0 0 0 0 0 0 0 0 0 0 0 0 0 0 0
0 0 0 0 0 0 0 1 1 1 0 0 0 0 0 0 0 0 0 0 0 0 0 0 0 0 0 0 0 0 0 0 0 0 0 0 0 0 0 0 0 0 0 0
0 0 0 0 0 0 0 0 0 0 0 0 0 0 0 0 0 0 0 0 0 0 0 0 0 0 0 0 0 0 0 0 0 0 0 0 0 0 0 0 0 0 0 0
0 0 0 0 0 0 0 0 0 0 0 0 0 0 0 0 0 0 0 0 0 0 0 0 0 0 0 0 0 0 0 0 0 0 0 0 0 0 0 0 0 0 0 0
0 0 0 0 0 0 0 0 0 0 0 0 0 0 0 0 0 0 0 0 0 0 0 0 0 0 0 0 0 0 0 0 0 0 0 0 0 0 0 0 0 0 0 0
0 0 0 0 0 0 0 0 0 0 0 0 0 0 0 0 0 0 0 0 0 0 0 0 0 0 0 0 0 0 0 0 0 0 0 0 0 0 0 0 0 0 0 0
0 0 0 0 0 0 0 0 0 0 0 0 0 0 0 0 0 0 0 0 0 0 0 0 0 0 0 0 0 0 0 0 0 0 0 0 0 0 0 0 0 0 0 0
0 0 0 0 0 0 0 0 0 0 0 0 0 0 0 0 0 0 0 0 0 0 0 0 0 0 0 0 0 0 0 0 0 0 0 0 0 0 0 0 0 0 0 0
0 0 0 0 0 0 0 0 0 0 0 0 0 0 0 0 0 0 0 0 0 0 0 0 0 0 0 0 0 0 0 0 0 0 0 0 0 0 0 0 0 0 0 0
0 0 0 0 0 0 0 0 0 0 0 0 0 0 0 0 0 0 0 0 0 0 0 0 0 0 0 0 0 0 0 0 0 0 0 0 0 0 0 0 0 0 0 0
0 0 0 0 0 0 0 0 0 0 0 0 0 0 0 0 0 0 0 0 0 0 0 0 0 0 0 0 0 0 0 0 0 0 0 0 0 0 0 0 0 0 0 0
0 0 0 0 0 0 0 0 0 0 0 0 0 0 0 0 0 0 0 0 0 0 0 0 0 0 0 0 0 0 0 0 0 0 0 0 0 0 0 0 0 0 0 0
0 0 0 0 0 0 0 0 0 0 0 0 0 0 0 0 0 0 0 0 0 0 0 0 0 0 0 0 0 0 0 0 0 0 0 0 0 0 0 0 0 0 0 0
0 0 0 0 0 0 0 0 0 0 0 0 0 0 0 0 0 0 0 0 0 0 0 0 0 0 0 0 -0 0 0 0 0 0 0 0 0 0 0 0 0 0 0 0
0 0 0 0 0 0 0 0 0 0 0 0 0 0 0 0 0 0 0 0 0 0 0 0 0 0 0 0 0 0 0 0 0 0 0 0 0 0 0 0 0 0 0 0
0 0 0 0 0 0 0 0 0 0 0 0 0 0 0 0 0 0 0 0 0 0 0 0 0 0 0 0 0 0 0 0 0 0 0 0 0 0 0 0 0 0 0 0
Wind_Speed
6 5 3 2 3 4 6 8 9 9 11 12 12 12 11 10 9 10 9 9 8 6 5 5 5 5 5 4 4 4 4 4 3 3 3 3 3 3 3 3 3 3 3 2
1 2 1 1 2 2 4 4 6 8 5 6 7 7 7 9 10 10 10 10 8 7 6 5 5 5 5 5 4 5 5 4 4 4 3 3 3 3 3 3 3 4 4 4
1 2 3 3 3 2 2 4 9 9 9 11 9 10 11 11 10 9 9 10 9 8 7 5 4 5 5 5 5 6 5 5 4 4 4 4 4 4 4 4 4 5 5 5
2 2 3 7 4 2 3 1 3 6 10 15 12 9 7 8 10 9 9 9 8 7 6 5 6 5 6 6 6 6 5 5 4 4 4 4 4 4 4 4 4 4 5 5
4 3 3 4 3 1 4 2 1 10 14 12 12 10 5 4 7 8 8 9 7 7 7 7 6 6 7 6 6 6 5 5 4 4 4 4 5 4 4 5 5 5 5 5
4 3 5 6 4 2 8 2 1 10 14 14 11 8 5 5 8 9 9 8 7 7 7 7 6 7 8 6 6 6 4 4 4 4 4 4 4 4 4 5 5 6 6 6
4 3 5 5 4 2 5 6 4 9 11 10 5 5 9 10 9 9 9 9 9 8 7 6 6 7 8 7 6 5 4 5 5 4 4 5 5 4 5 5 6 7 7 7
3 3 7 4 0 4 6 5 8 10 9 9 10 12 11 11 11 10 10 9 9 8 7 5 6 7 8 6 5 5 6 6 6 5 5 5 5 5 5 6 7 7 7 7
5 6 5 2 3 4 7 10 8 9 11 13 13 13 11 10 9 9 9 8 7 9 8 6 5 7 8 6 5 6 7 7 6 7 6 5 5 5 5 5 5 5 5 5
1 1 2 3 4 5 7 9 10 12 13 14 15 13 11 9 8 8 8 8 7 9 9 7 5 6 6 6 6 8 8 6 6 7 7 7 6 5 5 4 4 4 4 5
2 1 5 6 4 5 8 12 13 12 10 12 16 14 11 9 8 8 7 7 7 8 8 7 6 6 6 5 7 8 8 7 6 6 7 8 8 7 6 5 3 5 4 4
4 4 3 1 1 5 9 11 13 15 12 11 12 13 11 9 7 7 8 7 7 7 8 7 7 7 5 5 6 8 7 6 5 5 6 6 7 8 14 11 13 12 9 7
4 3 4 4 3 6 9 10 12 13 14 13 11 12 12 9 7 7 8 8 8 7 8 7 7 7 5 5 6 7 7 6 5 5 6 5 5 7 7 9 14 14 12 11
5 7 5 4 6 9 12 13 13 14 13 12 12 12 11 10 9 9 8 7 8 8 8 8 8 7 5 5 7 7 7 8 7 5 5 5 5 5 5 6 6 5 8 10
4 6 7 7 10 12 12 13 14 12 12 11 11 11 11 11 10 9 8 8 9 9 8 8 8 6 4 6 7 7 6 5 5 5 5 5 5 5 5 6 6 5 4 6
8 8 10 11 11 12 13 13 13 11 11 11 11 10 10 11 10 9 8 8 9 9 7 7 7 5 5 6 7 6 6 10 8 6 5 5 5 5 5 5 5 4 4 3
10 9 10 11 10 10 10 10 11 11 10 10 11 11 11 11 11 9 8 7 8 7 7 7 6 5 6 6 6 5 5 7 10 7 5 5 5 5 4 4 4 4 3 3
8 8 9 11 11 11 11 11 11 11 10 11 12 11 11 11 10 9 8 8 8 7 6 5 6 6 6 6 5 5 5 5 5 6 5 5 5 4 4 4 5 5 3 4
10 11 10 11 11 12 11 10 10 10 11 11 11 11 10 9 9 8 8 8 8 7 4 5 8 7 6 6 6 5 6 6 6 5 5 7 6 4 4 4 4 4 4 3
10 12 13 12 12 12 12 11 11 11 10 11 11 11 11 9 9 9 8 7 4 3 4 5 6 6 5 5 7 5 5 6 6 5 5 4 4 4 4 4 4 4 3 3
11 13 13 12 11 10 10 11 11 11 10 10 11 11 10 9 8 8 8 6 3 4 6 7 5 4 3 4 6 4 4 5 5 5 5 4 4 4 4 4 4 4 3 3
10 11 12 12 12 11 9 9 10 11 11 10 11 11 10 9 8 7 5 4 4 6 5 4 3 4 5 5 4 4 5 5 5 4 4 4 4 4 4 4 3 3 3 3
9 10 11 11 12 11 10 9 10 10 10 10 10 9 9 7 6 7 5 2 4 6 4 3 5 7 7 4 4 4 5 5 4 4 4 4 4 4 4 4 3 4 3 3
9 9 10 10 11 11 10 9 9 8 8 8 8 8 8 7 4 3 4 6 7 7 4 4 7 7 6 3 4 4 4 4 4 4 4 4 4 4 4 4 3 3 3 4
9 9 10 11 10 8 9 9 9 9 8 6 7 6 5 5 5 4 4 5 7 7 4 5 7 7 5 4 4 4 4 4 4 4 4 4 4 3 3 3 3 3 3 3
8 7 7 7 7 7 7 7 6 6 6 6 5 4 5 4 5 5 4 5 6 6 4 3 3 4 4 4 4 4 4 4 4 4 4 4 4 4 3 3 4 3 3 3
8 7 6 6 5 5 6 6 7 6 6 7 6 5 5 5 5 5 5 4 4 4 3 3 3 3 3 4 4 4 3 3 3 3 3 3 3 3 3 4 3 3 3 3
Wind_Direction
203 210 190 198 222 189 168 180 176 190 176 189 177 165 158 148 144 143 138 132 131 124 121 122 117 112 118 118 120 121 116 112 110 102 97 86 76 82 81 85 94 90 82 80
243 267 14 332 293 228 205 179 154 143 178 182 160 145 138 144 145 144 141 136 132 123 118 119 126 125 119 115 116 115 112 105 99 96 91 84 82 89 86 82 82 85 80 76
227 314 37 308 273 233 207 170 156 175 188 155 154 158 153 145 140 142 139 134 134 133 135 138 133 123 123 119 107 101 102 101 96 95 91 84 88 96 95 90 85 83 81 79
137 71 219 244 263 176 140 157 171 157 154 157 152 145 141 143 142 141 140 134 133 133 130 123 112 110 109 104 101 100 96 94 95 96 87 78 75 88 98 94 91 89 85 86
120 162 261 290 301 116 119 12 65 136 140 136 123 99 80 117 131 136 135 132 128 124 119 113 111 114 106 97 96 95 92 88 84 91 92 85 80 79 95 99 92 87 86 86
122 149 219 242 261 177 100 34 2 140 146 145 133 134 170 144 122 118 117 116 117 114 108 110 113 114 106 102 98 95 94 92 86 85 90 91 93 88 85 94 95 90 79 72
152 186 248 250 271 90 133 201 159 135 144 142 147 153 138 125 117 115 112 113 111 108 105 111 116 111 107 103 99 99 95 91 82 78 84 92 90 87 90 90 87 82 78 67
150 176 241 267 41 156 177 151 128 126 128 119 114 111 114 117 118 115 110 109 111 109 105 103 108 111 107 102 100 96 91 85 79 73 80 84 88 85 86 92 93 88 84 72
184 208 246 255 174 154 139 131 133 131 130 130 125 122 122 118 117 116 114 111 110 111 106 95 98 111 112 110 108 103 93 85 80 74 67 66 75 80 83 89 96 94 89 83
68 348 7 38 79 105 123 125 128 130 131 131 126 125 123 119 118 115 115 116 115 113 112 106 97 100 108 111 109 104 98 89 83 83 72 60 57 59 71 78 94 100 98 93
60 22 40 25 38 96 104 111 113 111 116 125 125 126 127 124 121 123 121 115 113 115 116 114 111 103 102 107 108 104 101 97 90 86 87 77 65 52 58 48 86 108 107 108
205 204 140 181 326 98 108 117 124 120 109 108 116 119 118 115 113 117 116 115 113 112 114 112 109 105 101 103 111 111 108 105 101 99 95 93 91 74 55 62 65 72 83 93
187 152 127 127 89 89 103 110 114 112 115 114 109 112 113 110 106 107 110 115 118 119 117 114 110 109 109 108 110 111 113 113 111 109 107 105 101 99 88 60 57 61 68 76
146 119 106 124 119 106 106 106 104 103 105 109 112 113 113 109 107 106 108 113 115 113 112 112 109 107 108 108 107 106 107 110 113 112 111 106 102 99 100 102 86 59 51 65
81 105 125 119 108 106 107 109 106 105 107 108 110 114 116 116 114 110 109 110 108 106 107 109 107 101 99 104 105 106 106 108 106 105 104 105 104 100 96 97 96 91 76 61
102 101 110 111 114 114 114 116 116 117 117 116 115 115 114 113 112 109 106 108 110 108 109 109 106 102 99 102 103 102 106 115 113 108 104 101 101 102 102 100 96 91 87 81
125 131 127 123 120 115 115 120 124 125 123 121 120 119 117 113 109 106 104 104 106 107 106 107 108 106 101 101 102 103 103 112 114 109 105 105 104 104 105 104 101 95 87 88
134 136 137 133 130 122 119 117 117 119 121 123 122 119 119 120 121 120 117 111 103 95 93 105 110 107 104 104 102 101 101 100 104 110 109 107 109 107 105 104 105 102 92 80
120 121 118 118 123 124 123 122 120 119 120 121 121 120 119 120 120 118 115 112 111 107 104 109 114 108 105 109 111 106 108 106 103 104 106 112 109 106 108 109 109 106 103 93
115 117 115 113 116 121 123 122 120 118 120 122 120 118 116 118 119 116 110 102 107 124 123 111 105 102 103 109 110 112 115 115 114 112 109 110 112 112 113 117 118 114 109 108
119 120 120 119 117 117 121 123 122 121 122 123 123 123 121 117 116 115 113 106 97 108 106 103 98 100 100 108 109 114 117 118 118 119 119 117 116 116 117 117 118 120 121 122
118 120 121 122 121 118 117 118 119 121 120 121 120 120 119 117 114 106 103 121 130 117 106 97 99 108 115 111 109 116 117 120 122 122 121 123 125 127 126 124 125 129 130 132
119 120 120 122 124 124 119 117 119 122 123 125 126 128 127 126 128 126 121 124 119 114 108 103 108 109 109 101 107 114 117 120 125 127 130 133 136 137 135 131 133 135 136 139
119 118 118 118 117 118 118 119 117 116 117 117 121 126 127 122 109 106 123 126 122 115 108 110 105 106 107 99 104 109 116 120 123 126 127 127 128 130 132 134 136 140 143 143
119 117 119 120 119 121 123 122 117 115 116 115 117 120 122 125 129 132 126 126 126 115 104 104 101 98 95 97 104 110 116 125 130 129 124 127 131 134 138 143 145 146 148 153
117 119 121 122 124 127 128 126 123 124 123 121 118 116 111 109 115 117 116 122 123 117 111 104 99 95 95 101 106 106 109 119 121 121 128 131 134 135 141 149 150 152 152 155
111 111 113 113 113 120 123 124 126 128 131 132 129 127 124 119 117 119 117 115 115 114 115 113 109 107 108 112 112 109 110 115 118 123 129 133 139 146 152 154 157 158 156 156